Flag for Switzerland Weather past 2 weeks in Illnau-Effretikon, Zurich, Switzerland

Now
37 °F

Chilly.


Feels Like: 37 °F
Forecast: 30 / 49 °F
Wind: 2 mph from West

Location: Zurich Town / Ville.

Current Time: Dec 22, 2014 at 9:49:40 PM

Latest Report: Dec 22, 2014 at 9:00 PM


Visibility: N/A

Pressure: 30.44 "Hg

Humidity: 75%

Dew point: 30 °F

Location of Illnau-EffretikonLocation

Historic Weather in Illnau-Effretikon — Graph

°F

Illnau-Effretikon temperature yesterday

Maximum temperature yesterday: 43 °F (at 1:00 PM)
Minimum temperature yesterday: 35 °F (at 8:00 PM)
Average temperature yesterday: 39 °F

Past Weeks' High & Low Weather Summary

 TemperatureHumidityPressure
High54 °F (Dec 19, 2:00 PM)100% (Dec 9, 2:00 AM)30.60 "Hg (Dec 9, 2:00 AM)
Low30 °F (Dec 10, 2:00 AM)43% (Dec 13, 1:00 PM)29.87 "Hg (Dec 12, 8:00 PM)
Average41 °F79%30.19 "Hg
* Reported Dec 7 8:00 PM — Dec 22 8:00 PM, Illnau-Effretikon, Weather by CustomWeather, © 2014

Note: Actual official high and low records may vary slightly from our data, if they occured in-between our weather recording intervals... More about our weather records

Advertising

Illnau-Effretikon weather history for previous 24 hours

 ConditionsComfort  
Time TempWeatherWind HumidityBarometerVisibility
8:00 PM
Dec 22
38 °FChilly.1 mph77%30.43 "HgN/A
7:00 PM39 °FPassing clouds.2 mph75%30.42 "HgN/A
6:00 PM39 °FChilly.3 mph72%30.42 "HgN/A
5:00 PM39 °FChilly.2 mph78%30.44 "HgN/A
4:00 PM41 °FQuite cool.3 mph74%30.44 "HgN/A
3:00 PM42 °FQuite cool.3 mph67%30.43 "HgN/A
2:00 PM42 °FQuite cool.6 mph69%30.44 "HgN/A
1:00 PM42 °FQuite cool.7 mph68%30.46 "HgN/A
12:00 PM39 °FChilly.5 mph74%30.49 "HgN/A
11:00 AM38 °FChilly.6 mph80%30.51 "HgN/A
10:00 AM36 °FChilly.5 mph87%30.51 "HgN/A
9:00 AM35 °FChilly.6 mph87%30.50 "HgN/A
8:00 AM34 °FChilly.6 mph89%30.50 "HgN/A
7:00 AM34 °FChilly.8 mph86%30.51 "HgN/A
6:00 AM35 °FChilly.9 mph84%30.50 "HgN/A
5:00 AM35 °FChilly.7 mph84%30.51 "HgN/A
3:00 AM35 °FChilly.7 mph83%30.52 "HgN/A
2:00 AM35 °FChilly.8 mph84%30.52 "HgN/A
1:00 AM36 °FChilly.6 mph83%30.55 "HgN/A
12:00 AM36 °FChilly.7 mph81%30.55 "HgN/A
11:00 PM
Dec 21
36 °FChilly.5 mph82%30.56 "HgN/A
9:00 PM36 °FChilly.5 mph87%30.58 "HgN/A
Weather by CustomWeather, © 2014

See weather overviewHow to use our weather pages